Weather History for KIJD - April, 2014

Change the Weather History Date:

Tuesday, April 22, 2014

  Actual Average Record
Temperature  
Mean Temperature 53 °F -  
Max Temperature 70 °F 62 °F 86 °F (2001)
Min Temperature 37 °F 37 °F 24 °F (1975)
Degree Days  
Heating Degree Days 12    
Growing Degree Days 3 (Base 50)    
Moisture  
Dew Point 42 °F    
Average Humidity 66    
Maximum Humidity 93    
Minimum Humidity 35    
Precipitation  
Precipitation 0.03 in - - ()
Sea Level Pressure  
Sea Level Pressure 29.65 in    
Wind  
Wind Speed 4 mph (SSW)    
Max Wind Speed 16 mph    
Max Gust Speed 23 mph    
Visibility 10 miles    
Events Rain    
Averages and records for this station are not official NWS values.
T = Trace of Precipitation, MM = Missing Value Source: NWS Daily Summary

Daily Weather History Graph

Daily Weather History Graph

Search for Another Location

Airport or City:

Trip Planner

Search our weather history database for the weather conditions in past years. The results will help you decide how hot, cold, wet, or windy it might be!

Date:

Astronomy

Apr. 22, 2014 Rise Set
Actual Time 5:57 AM EDT 7:37 PM EDT
Civil Twilight 5:28 AM EDT 8:06 PM EDT
Nautical Twilight 4:52 AM EDT 8:42 PM EDT
Astronomical Twilight 4:14 AM EDT 9:20 PM EDT
Moon 1:50 AM EDT (4/22) 12:29 PM EDT (4/22)
Length of Visible Light 14h 38m
Length of Day
13h 39m
Last Quarter, 46% of the Moon is Illuminated
Apr 22
Last Quarter
Apr 29
New
May 6
First Quarter
May 14
Full
May 21
Last Quarter

Hourly Weather History & Observations

Time (EDT) Temp. Dew Point Humidity Pressure Visibility Wind Dir Wind Speed Gust Speed Precip Events Conditions
12:52 AM 44.1 °F 37.9 °F 79% 29.87 in 10.0 mi Calm Calm - N/A   Clear
1:52 AM 42.1 °F 37.9 °F 85% 29.85 in 10.0 mi Calm Calm - N/A   Clear
2:52 AM 41.0 °F 37.0 °F 86% 29.83 in 10.0 mi Calm Calm - N/A   Clear
3:52 AM 39.9 °F 37.0 °F 89% 29.81 in 10.0 mi Calm Calm - N/A   Clear
4:52 AM 39.0 °F 36.0 °F 89% 29.78 in 10.0 mi Calm Calm - N/A   Clear
5:52 AM 37.9 °F 36.0 °F 93% 29.78 in 10.0 mi Calm Calm - N/A   Clear
6:52 AM 39.9 °F 37.9 °F 93% 29.77 in 10.0 mi Calm Calm - N/A   Clear
7:52 AM 46.0 °F 42.1 °F 86% 29.75 in 10.0 mi Calm Calm - N/A   Clear
8:52 AM 53.1 °F 42.1 °F 66% 29.72 in 10.0 mi South 4.6 mph - N/A   Clear
9:52 AM 60.1 °F 42.1 °F 51% 29.69 in 10.0 mi SW 5.8 mph - N/A   Clear
10:52 AM 64.9 °F 39.9 °F 40% 29.66 in 10.0 mi SSW 8.1 mph - N/A   Clear
11:52 AM 68.0 °F 39.9 °F 36% 29.64 in 10.0 mi SSW 10.4 mph - N/A   Clear
12:52 PM 68.0 °F 39.0 °F 35% 29.61 in 10.0 mi South 13.8 mph - N/A   Clear
1:52 PM 69.1 °F 41.0 °F 36% 29.58 in 10.0 mi South 16.1 mph 23.0 mph N/A   Clear
2:52 PM 68.0 °F 41.0 °F 37% 29.57 in 10.0 mi South 15.0 mph 20.7 mph N/A   Clear
3:52 PM 68.0 °F 41.0 °F 37% 29.55 in 10.0 mi SSW 12.7 mph - N/A   Clear
4:52 PM 68.0 °F 41.0 °F 37% 29.53 in 10.0 mi SSW 10.4 mph - N/A   Clear
5:52 PM 64.9 °F 42.1 °F 43% 29.53 in 10.0 mi SW 10.4 mph - N/A   Clear
6:52 PM 63.0 °F 43.0 °F 48% 29.53 in 10.0 mi SSW 10.4 mph - 0.00 in   Overcast
7:52 PM 57.0 °F 48.9 °F 74% 29.52 in 10.0 mi SSE 4.6 mph - 0.01 in Rain Light Rain
8:52 PM 55.0 °F 48.9 °F 80% 29.53 in 10.0 mi South 6.9 mph - 0.01 in Rain Light Rain
9:52 PM 54.0 °F 50.0 °F 86% 29.53 in 10.0 mi South 3.5 mph - 0.00 in Rain Light Rain
10:52 PM 53.1 °F 50.0 °F 89% 29.51 in 10.0 mi South 3.5 mph - 0.01 in   Scattered Clouds
11:52 PM 51.1 °F 48.9 °F 92% 29.49 in 6.0 mi Calm Calm - N/A   Partly Cloudy